Location: Unspecified
(0.0000°N, 0.0000°E)
Time: 20:49:50
(UTC+00:00)

N. Korean satellite - Pass Details

Date: 09 August 2021
Orbit: 449 x 498 km, 97.3° (Epoch: 25 September)

Event Time Altitude Azimuth Distance (km) Brightness Sun altitude
Rises 05:05:02 0° 4° (N) 2,452 10.4 -14.5°
Reaches altitude 10° 05:07:05 10° 359° (N) 1,577 9.3 -14.1°
Maximum altitude 05:10:23 54° 281° (W) 550 6.5 -13.3°
Drops below altitude 10° 05:13:41 10° 203° (SSW) 1,575 8.8 -12.5°
Enters shadow 05:14:08 - 201° (SSW) 1,761 9.0 -12.4°
